Погода в Олсуфьеве

Россия / Брянская область     53°35′52″N   33°40′03″E
темп.,
°C
ветер,
м/с
пор.,
м/с
влажн.,
%
обл.,
%
осадки,
мм/ч
давл.,
гПа
погр.,
м
13 апреля, вт
вт1300:00+9в2993100 0.0 1021201
03:00+9юв398998 0.0 1021177
06:00+8ююв369298 0.0 1022106
09:00+13юв477163 0.0 1022307
12:00+18юв475587 0.0 10211249
15:00+17ю5759100 0.4 10201317
18:00+14ю267892 1.1 1019221
21:00+12юв3884100 1.4 1020253
14 апреля, ср
ср1400:00+11юв31084100 0.0 1019287
03:00+10ююв269194 0.1 1018179
06:00+9ююв2296100 0.0 101830
09:00+10юв2592100 0.0 1018259
12:00+13ю237796 0.1 1017478
15:00+15ю2370100 0.7 1016752
18:00+11вюв3694100 3.4 1015249
21:00+10юв2594100 6.6 1015188
15 апреля, чт
чт1500:00+10юв2496100 0.1 1015135
03:00+9ю2297100 0.3 101547
06:00+9юв1294100 0.3 101542
09:00+10вюв3591100 0.4 1015220
12:00+10в2393100 0.9 1015154
15:00+10в1393100 1.5 1014159
18:00+9всв1396100 2.7 1014143
21:00+9в259585 3.1 1014148
16 апреля, пт
пт1600:00+7в22955 0.0 101428
03:00+6в229589 0.0 101425
06:00+6в2495100 0.1 101479
09:00+9ссв379191 1.4 1014223
12:00+14всв467099 0.3 1014940
15:00+12в378398 1.9 1016601
18:00+13в368092 0.6 1016582
21:00+9св359598 1.1 101788
17 апреля, сб
сб1700:00+9всв3997100 0.5 1019334
03:00+9св41096100 4.2 1019571
06:00+8св51192100 1.3 1021622
09:00+8св61288100 1.4 1022669
12:00+12всв6106833 0.0 10221093
15:00+14всв7105533 0.0 10231498
18:00+12всв611515 0.0 10241385
21:00+8всв513590 0.0 1026553